Temperature
-0 1 1 1 2 2 1 1 2 2 2 3 2 2 2 2 3 3 3 3 3 3 3 4 4 4 4 4 4 5 5 5 5 5 6 6 6 6 6 6 6 6 6 6
-0 1 1 1 1 2 2 2 2 2 2 2 2 2 1 1 2 2 2 2 2 3 3 3 3 3 3 4 4 4 4 4 4 5 5 5 5 5 5 5 5 5 5 5
-1 0 1 0 0 1 1 1 1 2 1 1 1 1 1 1 1 1 2 2 2 2 2 3 3 3 3 3 3 3 3 4 4 4 4 4 4 5 5 5 5 5 5 5
-1 -1 -0 0 0 0 0 0 0 1 1 0 0 1 1 1 1 1 1 1 2 2 2 2 2 2 3 3 3 3 3 3 3 4 4 4 4 4 4 4 4 4 4 4
-2 -2 -1 0 -0 -1 -1 -1 -1 -1 -1 -1 -0 0 0 1 1 1 1 1 1 1 1 2 2 2 2 2 2 2 2 3 3 3 3 3 4 4 4 4 4 4 4 4
-3 -2 -1 -0 -0 -1 -1 -1 -1 -1 -1 -2 -1 -1 -1 0 0 0 0 1 1 1 1 1 1 2 2 2 2 2 2 2 2 2 2 3 3 3 3 3 3 3 3 3
-3 -2 -2 -1 -1 -1 -1 -1 -1 -1 -1 -2 -2 -1 -1 -0 -0 -0 -0 0 0 1 1 1 1 1 1 2 2 2 2 2 2 2 2 2 2 3 3 3 3 2 2 2
-4 -3 -2 -2 -2 -2 -2 -1 -2 -2 -2 -2 -2 -1 -1 -1 -1 -1 -0 -0 -0 0 0 0 1 1 1 1 1 2 2 2 2 2 2 2 2 2 2 2 2 2 2 2
-4 -3 -2 -2 -2 -2 -2 -2 -2 -2 -2 -2 -2 -2 -2 -2 -1 -1 -1 -1 -1 -1 -0 -0 -0 0 0 1 1 1 1 1 1 1 1 1 1 1 2 2 1 1 1 1
-4 -4 -3 -2 -2 -2 -2 -2 -2 -2 -2 -2 -2 -2 -2 -2 -2 -2 -2 -1 -1 -1 -1 -1 -1 -0 -0 0 0 0 1 1 1 1 1 1 1 1 1 1 1 1 1 1
-5 -4 -4 -3 -3 -2 -3 -3 -3 -2 -2 -3 -3 -3 -3 -3 -3 -2 -2 -2 -2 -2 -1 -1 -1 -1 -0 -0 -0 -0 -0 -0 -0 -0 -0 0 0 0 0 0 0 0 0 0
-4 -4 -4 -3 -3 -3 -3 -3 -3 -3 -3 -3 -3 -3 -3 -3 -3 -3 -3 -2 -2 -2 -2 -1 -1 -1 -1 -1 -1 -1 -1 -1 -1 -1 -1 -1 -0 -0 -1 -1 -1 -1 -0 -0
-3 -3 -3 -3 -3 -3 -3 -3 -3 -3 -3 -3 -3 -4 -4 -4 -3 -3 -3 -3 -3 -2 -2 -2 -2 -1 -1 -1 -1 -1 -1 -1 -1 -1 -1 -1 -1 -1 -1 -1 -1 -1 -1 -1
-4 -4 -4 -4 -4 -4 -4 -4 -4 -4 -4 -4 -4 -4 -4 -4 -4 -4 -4 -3 -3 -3 -3 -2 -2 -2 -2 -2 -2 -2 -1 -1 -1 -1 -1 -1 -1 -1 -2 -2 -2 -2 -2 -2
-4 -4 -4 -4 -4 -4 -4 -4 -4 -4 -4 -4 -4 -4 -4 -4 -4 -4 -4 -4 -4 -4 -3 -3 -3 -3 -2 -2 -2 -2 -2 -2 -2 -2 -2 -2 -2 -2 -2 -2 -2 -2 -2 -2
-5 -5 -5 -5 -5 -5 -5 -5 -5 -5 -5 -5 -5 -5 -5 -5 -5 -5 -5 -5 -4 -4 -4 -4 -3 -3 -3 -3 -3 -3 -3 -3 -3 -3 -2 -2 -3 -3 -3 -3 -3 -3 -3 -2
-5 -5 -6 -6 -6 -5 -5 -5 -5 -5 -5 -5 -5 -5 -5 -5 -5 -5 -5 -5 -5 -5 -4 -4 -4 -4 -4 -4 -4 -4 -3 -3 -3 -3 -3 -3 -3 -3 -3 -3 -4 -4 -3 -3
-5 -5 -6 -6 -6 -6 -6 -6 -6 -6 -6 -6 -6 -6 -6 -6 -6 -6 -6 -5 -5 -5 -5 -5 -5 -4 -4 -4 -4 -4 -4 -4 -4 -4 -4 -4 -4 -4 -4 -4 -4 -4 -4 -4
-5 -6 -6 -6 -6 -6 -6 -6 -6 -6 -6 -6 -6 -6 -6 -6 -6 -6 -6 -6 -6 -5 -5 -5 -5 -5 -5 -5 -5 -5 -5 -5 -5 -5 -5 -5 -5 -4 -4 -4 -4 -4 -4 -4
-6 -6 -6 -6 -6 -6 -6 -6 -6 -6 -6 -6 -6 -6 -6 -6 -6 -6 -6 -6 -6 -6 -6 -6 -6 -6 -6 -6 -6 -6 -5 -5 -5 -5 -5 -5 -5 -5 -5 -5 -4 -4 -4 -4
-6 -6 -6 -6 -6 -6 -6 -6 -6 -6 -7 -7 -7 -7 -7 -7 -7 -7 -7 -7 -7 -7 -7 -6 -6 -6 -6 -6 -6 -6 -6 -6 -6 -6 -6 -6 -5 -5 -5 -5 -5 -5 -4 -4
-7 -7 -7 -7 -7 -7 -7 -7 -7 -7 -7 -7 -7 -7 -7 -7 -7 -7 -7 -7 -7 -7 -7 -7 -7 -7 -7 -7 -7 -7 -7 -6 -6 -6 -6 -6 -6 -6 -5 -5 -5 -5 -5 -5
-7 -7 -7 -7 -7 -7 -7 -7 -7 -7 -7 -7 -7 -7 -8 -8 -8 -8 -7 -7 -8 -8 -7 -7 -7 -7 -7 -7 -7 -7 -7 -7 -7 -7 -6 -6 -6 -6 -6 -6 -5 -5 -5 -5
-7 -7 -7 -7 -7 -7 -7 -7 -7 -8 -8 -8 -8 -8 -8 -8 -8 -8 -8 -8 -8 -8 -8 -8 -8 -8 -7 -7 -7 -7 -7 -7 -7 -7 -7 -7 -6 -6 -6 -6 -6 -6 -6 -6
-7 -7 -8 -8 -8 -8 -8 -8 -8 -8 -8 -8 -8 -8 -8 -8 -8 -8 -8 -8 -8 -8 -8 -8 -8 -8 -8 -8 -7 -7 -7 -7 -7 -7 -7 -7 -7 -7 -6 -6 -6 -6 -6 -6
-8 -8 -8 -8 -8 -8 -8 -8 -8 -8 -8 -8 -8 -8 -8 -9 -9 -9 -9 -8 -8 -8 -8 -8 -8 -8 -8 -8 -8 -8 -8 -8 -8 -7 -7 -7 -7 -7 -6 -6 -6 -6 -6 -6
-8 -8 -8 -8 -8 -8 -9 -9 -9 -9 -9 -9 -9 -9 -9 -9 -9 -9 -9 -9 -9 -9 -8 -8 -8 -8 -8 -8 -8 -8 -8 -8 -8 -8 -7 -7 -7 -7 -7 -7 -7 -7 -6 -6
Wind_Speed
4 4 2 3 4 3 4 5 6 5 5 6 4 3 2 2 1 2 2 1 1 1 1 1 1 0 0 0 0 1 2 3 3 3 3 3 3 3 3 4 4 5 5 4
3 3 2 3 5 5 5 4 5 5 6 3 2 2 2 2 1 1 1 1 1 1 1 0 0 1 1 1 0 1 2 2 2 2 3 3 3 3 3 3 3 4 4 4
2 3 1 3 5 5 4 3 4 5 5 2 3 2 1 2 2 1 1 1 1 1 1 1 1 1 1 1 1 1 1 1 1 2 3 2 2 3 3 3 3 4 4 4
1 2 3 5 2 2 3 1 1 2 2 2 3 3 2 2 2 2 2 2 2 2 2 2 2 1 1 0 1 1 1 1 1 1 2 2 2 2 2 2 3 3 3 4
1 1 4 5 2 0 2 3 1 1 2 3 3 3 2 3 3 2 2 2 2 2 2 2 2 1 0 1 1 1 1 1 1 2 2 2 2 2 2 2 2 2 3 3
2 2 4 4 4 3 1 3 1 0 2 3 2 1 4 4 5 3 3 2 2 2 2 2 2 1 1 1 1 1 1 1 1 2 2 2 3 2 1 2 2 2 2 2
2 3 5 5 5 1 3 4 3 2 3 2 2 4 4 4 4 2 2 2 2 2 1 2 2 1 1 0 1 1 1 1 1 1 2 2 1 1 2 2 2 2 2 1
2 3 6 3 1 2 4 3 2 3 3 3 4 4 3 3 3 3 3 2 2 2 2 2 2 2 1 1 1 1 2 2 1 1 1 1 1 1 2 3 2 2 2 1
6 6 3 1 2 3 2 3 3 2 3 2 3 3 2 2 2 2 2 2 2 2 2 3 2 2 1 2 1 1 2 2 2 2 1 1 1 2 2 2 2 2 2 2
4 5 4 4 3 3 2 3 3 2 2 2 2 2 2 2 2 2 2 2 2 2 2 3 3 3 2 1 1 2 2 2 2 2 1 1 1 1 2 2 2 2 2 2
4 5 4 3 3 3 3 3 2 2 2 2 2 2 2 2 2 2 2 2 2 1 2 3 3 3 3 2 1 2 2 2 2 1 1 1 1 0 1 1 2 3 3 3
6 5 4 4 4 3 2 3 3 2 2 2 1 2 1 1 1 2 2 2 2 2 2 3 3 3 3 2 1 2 2 1 1 1 1 1 1 2 3 2 1 1 1 2
5 4 3 4 3 1 1 2 2 2 2 2 1 0 0 0 1 2 2 2 2 2 2 2 3 3 3 3 1 1 1 1 1 1 1 1 1 1 2 3 4 3 2 1
3 1 2 2 2 2 1 1 1 2 2 1 1 1 1 1 1 2 2 3 2 1 2 2 2 3 3 2 2 1 1 1 1 1 1 1 1 1 1 1 1 1 1 1
3 2 3 2 1 1 2 1 1 2 2 2 2 2 1 1 2 2 3 2 2 2 2 2 2 3 3 2 2 2 1 1 1 1 1 1 1 1 1 1 1 1 1 1
3 2 1 1 2 2 1 1 1 1 1 2 2 2 1 1 1 2 3 2 2 2 2 2 2 3 2 2 2 1 1 1 1 1 1 1 1 1 1 1 1 0 0 0
1 2 2 3 3 3 2 2 2 2 2 2 2 2 1 1 2 2 3 3 2 2 2 2 2 3 2 1 1 1 0 0 0 1 1 1 1 1 1 1 1 0 0 1
3 4 4 4 4 3 3 3 2 2 2 2 2 1 1 1 2 3 3 3 2 3 3 2 2 2 1 1 1 0 0 0 0 1 1 1 1 1 1 1 1 1 0 1
2 2 2 2 2 2 2 3 3 2 2 1 1 1 1 2 2 2 2 2 2 3 4 3 3 2 1 2 1 0 0 0 0 0 1 1 1 1 1 1 1 1 0 0
1 1 1 1 1 1 2 2 2 2 2 1 1 1 1 1 1 1 1 2 2 3 3 3 2 1 1 1 1 0 1 1 1 0 1 1 1 1 1 1 1 1 0 0
2 1 1 1 1 2 2 2 2 2 2 1 2 2 2 2 2 1 1 2 3 3 3 4 2 1 1 1 1 0 1 1 1 1 1 1 1 1 1 1 1 0 0 0
2 2 2 2 1 2 2 2 1 2 1 1 1 1 1 1 1 1 2 3 3 4 3 2 2 2 2 1 0 1 1 1 1 1 1 1 1 1 1 1 1 1 0 0
2 2 2 2 2 2 2 2 1 1 2 2 2 2 2 2 1 1 2 2 2 4 3 2 2 2 2 1 0 1 1 1 1 1 1 1 1 1 1 1 1 1 1 0
2 2 2 1 1 1 2 2 2 1 1 2 2 2 2 1 2 2 2 3 4 4 2 3 3 3 2 1 1 0 1 1 1 1 1 1 1 1 1 1 1 1 1 0
1 1 1 1 1 2 2 2 1 1 1 1 2 2 2 1 2 1 1 2 3 3 2 3 4 3 2 1 0 0 0 1 1 1 1 1 1 1 1 1 1 1 1 0
1 1 2 2 2 2 1 1 1 1 1 1 2 2 1 1 1 1 1 1 2 2 2 2 2 2 1 1 1 0 0 0 0 0 1 1 1 1 1 1 1 0 0 0
1 1 1 1 1 1 1 1 1 2 2 1 2 2 1 1 1 1 1 1 1 1 1 1 1 1 1 1 1 1 0 0 1 1 1 1 1 1 1 1 0 0 0 0
Wind_Direction
254 250 226 253 255 227 202 198 211 236 248 278 291 298 326 347 56 73 87 82 105 128 103 65 43 353 265 265 267 173 160 171 181 172 160 155 158 164 161 165 171 171 168 169
299 258 223 274 268 241 236 227 225 242 271 296 317 13 12 3 33 50 352 336 338 353 73 42 334 292 272 275 263 167 167 179 175 159 154 156 159 158 155 163 165 160 166 168
286 312 22 273 248 220 210 210 203 231 255 323 345 345 304 300 298 267 285 318 330 317 296 291 280 256 246 250 237 146 140 138 156 161 155 156 149 142 155 169 160 158 167 168
279 29 228 244 256 207 197 247 237 248 280 289 289 298 295 310 302 301 290 293 309 315 317 319 322 314 316 316 179 164 147 142 127 144 156 148 141 151 164 169 168 170 172 173
158 224 274 292 301 210 210 270 296 249 310 329 336 346 335 346 347 306 295 296 298 301 311 326 331 334 57 75 141 150 157 160 162 157 153 156 160 170 179 164 166 171 168 166
149 182 239 270 299 302 144 269 291 221 287 307 353 317 286 330 340 336 345 346 341 345 357 355 339 3 114 123 140 170 187 176 156 156 163 172 178 172 160 152 159 153 148 154
199 222 261 279 294 42 166 251 308 268 257 268 244 242 275 318 328 331 344 350 359 9 3 334 342 32 85 113 208 215 153 135 128 141 159 166 161 154 140 134 128 134 137 138
180 207 256 302 59 162 236 286 296 283 270 263 266 281 299 321 331 346 3 6 9 9 350 349 7 37 43 353 331 69 110 116 116 118 127 129 123 120 132 140 139 142 138 129
200 217 255 273 229 255 256 274 280 269 278 275 273 280 300 316 331 347 354 351 355 0 351 356 4 26 31 347 6 74 96 105 99 84 78 103 135 143 141 146 154 162 161 168
256 267 273 281 288 304 291 278 285 271 267 267 264 273 293 307 323 334 336 337 349 6 5 354 354 0 4 359 39 104 111 107 105 107 87 64 80 149 162 162 167 175 178 184
257 278 301 289 286 296 307 310 318 327 301 269 255 274 271 286 298 308 323 332 345 359 352 341 351 358 1 10 70 104 120 124 115 110 116 79 35 344 191 188 187 187 196 191
242 246 232 261 276 298 294 307 310 312 325 315 266 257 274 295 308 325 337 345 354 352 348 342 352 354 356 6 76 123 128 127 130 130 126 115 80 38 32 48 74 100 146 172
244 259 247 266 284 299 293 303 309 301 295 315 335 6 98 323 328 341 346 350 344 334 332 339 350 351 350 351 34 115 152 151 148 148 147 127 116 107 66 37 48 70 80 95
261 273 278 271 275 308 318 325 352 6 9 11 9 20 42 33 359 354 340 330 334 341 344 351 359 350 343 354 27 43 87 129 137 151 150 148 148 142 132 122 72 25 23 53
275 250 238 260 292 336 349 6 22 14 11 7 10 18 30 19 349 335 330 335 359 13 9 7 2 345 347 9 37 42 49 94 123 131 139 146 140 133 128 131 129 100 51 40
284 282 244 243 260 291 322 320 300 297 314 322 337 340 338 338 331 328 333 344 358 346 339 346 338 332 347 16 31 31 31 42 107 131 140 136 138 139 135 136 137 125 108 34
221 253 248 264 266 273 275 265 258 265 270 277 280 294 310 341 339 334 336 339 333 320 320 321 316 323 343 16 23 6 21 26 63 141 161 163 155 154 151 153 167 200 269 293
228 233 231 234 240 249 264 269 264 260 255 261 271 277 271 279 289 303 315 330 347 346 334 318 314 327 345 360 4 350 29 278 237 200 177 172 159 150 150 165 181 194 243 8
257 241 245 245 233 225 240 256 260 255 262 264 255 262 269 269 276 291 312 337 343 331 324 323 333 345 336 323 332 102 218 238 251 207 181 182 154 144 157 180 190 196 192 4
290 276 264 265 258 242 251 261 258 260 263 248 244 258 293 297 294 300 317 310 293 283 292 309 325 325 315 301 317 230 211 202 202 203 190 175 172 173 174 189 189 187 186 199
284 286 281 273 281 286 278 269 247 252 266 248 230 234 256 282 287 279 297 304 304 303 302 310 320 306 297 286 300 209 196 192 184 176 181 179 179 186 189 181 177 181 194 195
273 271 272 275 279 296 306 293 260 252 258 261 253 240 244 270 285 284 265 262 281 308 317 306 293 288 290 292 222 165 174 175 174 175 183 186 189 192 185 179 181 188 198 185
273 270 267 266 267 284 307 300 267 245 244 250 246 239 245 258 266 267 290 290 290 312 323 308 302 310 326 358 112 166 176 178 182 185 188 186 186 178 178 178 178 179 175 180
272 275 274 279 277 284 291 293 286 269 256 265 263 253 247 263 286 282 271 297 317 323 327 327 339 346 5 39 63 121 155 166 176 180 176 171 161 158 166 166 164 168 170 187
257 258 262 243 238 255 266 280 296 294 291 299 296 292 279 257 251 273 286 296 315 332 335 337 349 359 11 28 46 88 116 148 156 159 157 152 150 154 160 159 160 162 179 215
247 249 251 249 247 255 263 257 262 277 274 284 297 294 291 282 260 262 276 294 310 337 343 339 345 353 6 10 21 60 126 143 47 91 122 131 145 156 161 153 143 154 175 276
248 257 271 297 298 280 271 258 253 265 263 257 281 295 289 284 285 292 299 315 333 343 342 341 343 355 16 21 22 27 47 81 101 112 121 129 140 149 141 130 118 111 107 213
Height
1474 1470 1470 1469 1467 1467 1469 1469 1471 1465 1464 1461 1459 1459 1457 1456 1455 1455 1455 1456 1456 1456 1456 1457 1457 1458 1458 1459 1460 1462 1463 1464 1466 1468 1470 1472 1474 1476 1478 1479 1481 1482 1484 1485
1474 1468 1468 1468 1466 1466 1465 1465 1465 1463 1463 1460 1459 1459 1458 1457 1456 1455 1455 1455 1455 1455 1455 1455 1455 1456 1456 1457 1458 1459 1461 1462 1464 1466 1468 1469 1471 1473 1474 1476 1478 1479 1481 1482
1477 1472 1469 1472 1466 1464 1464 1463 1463 1463 1462 1460 1459 1459 1458 1457 1456 1455 1455 1454 1454 1454 1454 1454 1455 1455 1455 1455 1456 1458 1459 1460 1462 1463 1465 1467 1468 1470 1472 1473 1475 1476 1478 1479
1480 1477 1478 1470 1464 1463 1463 1463 1462 1461 1461 1460 1459 1458 1458 1457 1456 1455 1454 1454 1453 1453 1453 1453 1453 1454 1454 1454 1455 1456 1457 1458 1460 1461 1462 1464 1466 1467 1469 1470 1472 1473 1475 1476
1482 1482 1475 1467 1464 1465 1465 1464 1463 1462 1461 1460 1459 1457 1457 1456 1455 1454 1454 1453 1453 1452 1452 1452 1452 1452 1452 1453 1453 1454 1455 1456 1458 1459 1460 1462 1463 1465 1466 1467 1469 1470 1472 1473
1483 1481 1477 1468 1464 1462 1465 1465 1462 1461 1460 1460 1458 1459 1457 1455 1454 1453 1452 1452 1451 1451 1451 1450 1451 1451 1451 1451 1452 1452 1453 1454 1456 1457 1458 1460 1461 1462 1464 1465 1466 1468 1469 1470
1484 1482 1474 1467 1463 1462 1469 1465 1462 1460 1459 1459 1458 1458 1456 1454 1453 1452 1451 1451 1450 1450 1449 1449 1449 1449 1449 1449 1450 1451 1452 1453 1454 1455 1456 1458 1459 1460 1461 1462 1464 1465 1466 1467
1484 1482 1476 1465 1463 1466 1465 1461 1460 1458 1457 1456 1455 1454 1453 1452 1451 1450 1449 1449 1448 1448 1447 1448 1448 1448 1448 1448 1449 1449 1450 1451 1452 1453 1454 1456 1457 1457 1458 1460 1461 1462 1463 1464
1476 1473 1466 1464 1463 1462 1461 1460 1458 1457 1455 1454 1453 1452 1451 1450 1450 1449 1448 1447 1447 1447 1446 1446 1447 1447 1447 1447 1447 1448 1449 1449 1450 1451 1452 1453 1454 1455 1456 1457 1458 1459 1460 1460
1471 1466 1464 1463 1461 1460 1459 1458 1457 1455 1454 1452 1451 1450 1449 1449 1448 1447 1447 1446 1446 1445 1445 1445 1445 1446 1446 1446 1446 1447 1447 1448 1448 1449 1450 1451 1452 1453 1453 1454 1455 1456 1457 1458
1469 1464 1462 1460 1460 1459 1458 1456 1455 1453 1452 1451 1450 1449 1448 1447 1447 1446 1446 1445 1445 1445 1444 1444 1444 1444 1444 1444 1445 1445 1446 1446 1447 1448 1448 1449 1450 1450 1451 1452 1453 1454 1454 1455
1465 1462 1462 1459 1458 1457 1456 1454 1453 1452 1450 1450 1449 1447 1447 1446 1446 1445 1445 1444 1444 1444 1443 1443 1443 1443 1443 1443 1443 1444 1444 1445 1445 1446 1447 1447 1448 1449 1449 1450 1451 1452 1453 1454
1460 1459 1459 1457 1456 1456 1454 1453 1452 1451 1450 1448 1447 1446 1446 1445 1445 1445 1444 1443 1443 1442 1442 1442 1441 1441 1441 1442 1442 1442 1442 1443 1444 1444 1445 1446 1446 1447 1447 1448 1449 1450 1451 1452
1458 1457 1456 1455 1455 1454 1453 1452 1451 1450 1449 1448 1447 1446 1445 1444 1444 1444 1443 1442 1442 1441 1441 1441 1440 1440 1440 1440 1440 1440 1441 1442 1442 1443 1443 1444 1445 1445 1446 1446 1447 1448 1449 1450
1456 1455 1455 1454 1453 1452 1452 1451 1449 1448 1448 1447 1446 1445 1445 1444 1443 1443 1442 1442 1441 1440 1440 1440 1439 1439 1439 1439 1439 1439 1439 1440 1441 1441 1442 1443 1443 1444 1444 1445 1446 1446 1447 1448
1454 1453 1452 1452 1451 1451 1450 1449 1448 1447 1446 1446 1445 1444 1444 1443 1443 1442 1441 1441 1440 1439 1439 1438 1438 1438 1438 1437 1437 1437 1438 1438 1439 1439 1440 1441 1441 1442 1443 1443 1444 1444 1445 1445
1451 1450 1450 1449 1449 1448 1448 1447 1447 1446 1445 1444 1444 1443 1443 1442 1441 1441 1440 1440 1439 1438 1438 1437 1437 1437 1436 1436 1436 1435 1436 1436 1437 1438 1438 1439 1440 1440 1441 1442 1442 1443 1443 1444
1449 1449 1448 1448 1447 1446 1446 1446 1445 1444 1444 1443 1443 1442 1441 1440 1440 1439 1439 1438 1437 1437 1436 1436 1435 1435 1435 1434 1434 1434 1434 1435 1435 1436 1436 1437 1438 1439 1440 1440 1441 1441 1441 1442
1447 1446 1446 1446 1445 1445 1444 1444 1443 1443 1442 1442 1441 1440 1439 1439 1438 1438 1437 1436 1436 1435 1434 1434 1434 1433 1433 1433 1432 1432 1433 1433 1434 1434 1435 1436 1436 1437 1438 1438 1439 1439 1439 1440
1445 1444 1444 1443 1443 1443 1442 1442 1441 1441 1440 1440 1439 1438 1438 1437 1437 1436 1435 1435 1434 1433 1433 1432 1431 1431 1431 1431 1431 1431 1431 1432 1432 1433 1433 1434 1434 1435 1436 1437 1437 1438 1438 1438
1443 1442 1442 1441 1441 1441 1440 1440 1439 1439 1438 1438 1437 1437 1436 1435 1435 1434 1433 1432 1432 1432 1431 1430 1430 1429 1429 1429 1429 1429 1430 1430 1431 1431 1431 1432 1432 1433 1434 1435 1435 1436 1436 1437
1441 1440 1440 1439 1439 1438 1438 1438 1437 1437 1436 1436 1436 1435 1434 1434 1433 1433 1432 1431 1431 1430 1429 1428 1428 1428 1428 1428 1428 1428 1428 1428 1429 1429 1430 1430 1431 1431 1432 1433 1434 1434 1435 1435
1439 1439 1438 1437 1437 1437 1436 1436 1435 1435 1435 1434 1434 1433 1433 1432 1432 1431 1430 1430 1429 1428 1428 1427 1427 1427 1427 1426 1426 1426 1426 1427 1427 1428 1428 1428 1429 1430 1430 1431 1432 1433 1433 1434
1437 1437 1436 1436 1435 1435 1434 1434 1434 1433 1433 1432 1432 1432 1431 1430 1430 1429 1429 1428 1427 1427 1426 1426 1426 1426 1425 1425 1425 1425 1425 1425 1426 1426 1426 1427 1427 1428 1429 1430 1431 1431 1432 1433
1435 1435 1435 1434 1433 1433 1433 1432 1431 1431 1431 1430 1430 1430 1429 1429 1428 1428 1427 1427 1426 1426 1425 1425 1425 1425 1424 1424 1424 1424 1424 1424 1424 1425 1425 1425 1426 1427 1428 1429 1429 1430 1431 1431
1434 1433 1433 1432 1432 1431 1431 1430 1430 1429 1429 1428 1428 1428 1427 1427 1427 1426 1426 1425 1425 1424 1424 1424 1423 1423 1423 1423 1423 1423 1423 1423 1423 1424 1424 1425 1425 1426 1427 1428 1428 1429 1430 1430
1432 1431 1431 1430 1430 1430 1429 1428 1428 1427 1427 1426 1426 1426 1425 1425 1425 1424 1424 1424 1423 1423 1423 1423 1422 1422 1422 1422 1422 1422 1422 1422 1423 1423 1423 1424 1425 1426 1426 1427 1428 1428 1429 1429